This is the latest recevied weather packets stored in our database for station/object WX7FGZ-6. If no packets are shown the sender has not sent any weather packets the latest 10 day(s).
| Time | Temp. | Humidity | Pressure | Rain* | Wind** | Luminosity | Snow |
|---|---|---|---|---|---|---|---|
| 1777826328 | 4.44° C | 63% | 1023.6 hPa | 0 mm | - | - | - |
| 1777825728 | 4.44° C | 64% | 1023.6 hPa | 0 mm | - | - | - |
| 1777825287 | 3.89° C | 65% | 1023.5 hPa | 0 mm | - | - | - |
| 1777824087 | 3.89° C | 66% | 1024.2 hPa | 0 mm | - | - | - |
| 1777821566 | 2.78° C | 65% | 1024.6 hPa | 0 mm | - | - | - |
| 1777821266 | 2.78° C | 65% | 1024.5 hPa | 0 mm | - | - | - |
| 1777818084 | 1.67° C | 66% | 1022.9 hPa | 0 mm | - | - | - |
| 1777817483 | 1.67° C | 63% | 1023.1 hPa | 0 mm | - | - | - |
| 1777817154 | 1.67° C | 63% | 1023.1 hPa | 0 mm | - | - | - |
| 1777816854 | 1.67° C | 63% | 1023.2 hPa | 0 mm | - | - | - |
| 1777816554 | 1.67° C | 63% | 1023.3 hPa | 0 mm | - | - | - |
| 1777815654 | 1.67° C | 63% | 1023.1 hPa | 0 mm | - | - | - |
| 1777815354 | 1.67° C | 64% | 1023.1 hPa | 0 mm | - | - | - |
| 1777815054 | 1.11° C | 64% | 1023 hPa | 0 mm | - | - | - |
| 1777811872 | 1.11° C | 65% | 1021.9 hPa | 0 mm | - | - | - |
| 1777811572 | 1.11° C | 64% | 1022.1 hPa | 0 mm | - | - | - |
| 1777810671 | 1.11° C | 64% | 1022 hPa | 0 mm | - | - | - |
| 1777807672 | 1.11° C | 58% | 1022.2 hPa | 0 mm | - | - | - |
| 1777807372 | 1.11° C | 57% | 1022.3 hPa | 0 mm | - | - | - |
| 1777807071 | 1.11° C | 57% | 1022.3 hPa | 0 mm | - | - | - |
| 1777806471 | 1.11° C | 57% | 1022.3 hPa | 0 mm | - | - | - |
| 1777804218 | 1.67° C | 62% | 1022.4 hPa | 0 mm | - | - | - |
| 1777803919 | 1.67° C | 62% | 1022.3 hPa | 0 mm | - | - | - |
| 1777803618 | 1.11° C | 64% | 1022.3 hPa | 0 mm | - | - | - |
| 1777803018 | 1.67° C | 65% | 1022.3 hPa | 0 mm | - | - | - |
* Rain latest hour (hover to see other rain measurements)
** Current wind speed in m/s (hover to see current wind gust speed)